Location: Gallinara
(44.0333°N, 8.2333°E)
Time: 10:13:43
(UTC+00:00)

Cosmos 2360 Rocket - Pass Details

Date: 25 September 2020
Orbit: 835 x 844 km, 71.0° (Epoch: 24 October)

Event Time Altitude Azimuth Distance (km) Brightness Sun altitude
Exits shadow 04:15:13 12° 231° (SW) 2,317 4.0 -12.1°
Maximum altitude 04:20:12 45° 302° (WNW) 1,144 2.6 -11.2°
Drops below altitude 10° 04:25:37 10° 14° (NNE) 2,469 4.9 -10.2°
Sets 04:28:12 0° 21° (NNE) 3,407 5.8 -9.8°
